Regional Weather Roundup
Issued by NWS

Home | Current Version | Previous Version | Text Only | Print | Product List | Glossary On
Versions: 1 2 3 4 5 6 7 8 9 10 11 12 13 14 15 16 17 18 19 20 21 22 23 24 25 26 27 28 29 30 31 32 33 34 35 36 37 38 39 40 41 42 43 44 45 46 47 48 49 50
000
ASUS43 KBIS 020420
RWRND

NORTH DAKOTA REGIONAL WEATHER ROUNDUP
NATIONAL WEATHER SERVICE BISMARCK ND
1100 PM CDT FRI AUG 01 2014

NOTE: "FAIR" INDICATES FEW OR NO CLOUDS BELOW 12,000 FEET WITH NO
SIGNIFICANT WEATHER AND/OR OBSTRUCTIONS TO VISIBILITY.


NDZ001>003-009>011-017-020500-
NORTHWEST NORTH DAKOTA

CITY           SKY/WX    TMP DP  RH WIND       PRES   REMARKS
WILLISTON      CLEAR     68  56  65 CALM      30.10R
MINOT          CLEAR     66  60  81 CALM      30.08R
MINOT AFB      CLEAR     68  63  85 CALM      30.07R
$$

NDZ018>021-031>035-040>046-020500-
SOUTHWEST NORTH DAKOTA

CITY           SKY/WX    TMP DP  RH WIND       PRES   REMARKS
BISMARCK       MOCLDY    68  62  81 N3        30.08R
DICKINSON      CLEAR     64  58  80 NE6       30.11R
GARRISON         N/A     66  62  87 NE5       30.08R
HETTINGER ARPT CLEAR     68  58  70 NE15      30.09R
$$

NDZ004>008-012>016-024-026-027-054-020500-
NORTHEAST NORTH DAKOTA

CITY           SKY/WX    TMP DP  RH WIND       PRES   REMARKS
GRAND FORKS    PTCLDY    64  60  87 S6        30.06R
GRND FRKS AFB  CLEAR     65  64  94 S5        30.07S
DEVILS LAKE    CLEAR     70  59  68 S7        30.07S
$$

NDZ022-023-025-028>030-036>039-047>053-020500-
SOUTHEAST NORTH DAKOTA

CITY           SKY/WX    TMP DP  RH WIND       PRES   REMARKS
FARGO          CLEAR     68  60  75 CALM      30.07R
JAMESTOWN      PTCLDY    68  60  75 E7        30.08R
$$



USA.gov is the U.S. government's official web portal to all federal, state and local government web resources and services.